[[{"header":{"parameterUnit":"m.s-1","parameterCategory":1,"la1":30.2992,"la2":30.254,"lo1":-89.0895,"lo2":-89.0443,"dy":0.0025,"dx":0.0025,"nx":19,"ny":19,"refTime":"2026-04-12T03:00:00:Z","depth":0,"parameterNumber":2,"parameterNumberName":"U-component_of_WINDS"},"data":[0,0,0,-3.8243,-3.8246,-3.8404,-3.8405,-3.86,-3.8601,0,0,0,0,0,0,0,0,0,0,0,-3.8191,-3.8192,-3.8242,-3.8246,-3.8404,-3.8405,-3.8599,-3.8601,0,0,0,0,0,0,0,0,0,0,0,-3.819,-3.8192,-3.8193,-3.8247,-3.8404,-3.8405,-3.8599,-3.8482,0,0,0,0,0,0,0,0,0,0,-3.833,-3.8277,-3.8191,-3.8193,-3.8248,-3.8404,-3.8405,-3.8477,-3.8489,-3.8524,0,-3.8554,0,-3.8581,-3.8614,-3.8614,0,0,0,-3.825,-3.8267,-3.8314,-3.8193,-3.8249,-3.8404,-3.8334,-3.8484,-3.8498,-3.8541,-3.8557,-3.8564,-3.8584,-3.8615,-3.8616,-3.8804,-3.8805,0,0,-3.8241,-3.8217,-3.8304,-3.8323,-3.8298,-3.8329,-3.8339,-3.8493,-3.8508,-3.8558,-3.8569,-3.8587,-3.8616,-3.8618,-3.8803,-3.8804,0,0,0,-3.8213,-3.821,-3.8254,-3.8315,-3.8344,-3.8333,-3.8345,-3.8502,-3.8518,-3.8571,-3.8589,-3.8617,-3.8619,-3.8803,-3.8804,-3.8814,0,0,0,-3.8208,-3.8194,-3.825,-3.8237,-3.8341,-3.8425,-3.835,-3.8507,-3.8525,-3.8588,-3.8617,-3.8621,-3.8802,-3.8803,-3.8812,-3.8822,0,0,0,-3.8182,-3.8191,-3.8213,-3.8235,-3.8302,-3.8423,-3.8448,-3.8512,-3.8536,-3.8614,-3.8622,-3.8801,-3.8803,-3.881,-3.882,-3.8863,0,0,0,-3.8147,-3.8221,-3.8212,-3.8302,-3.8301,-3.8428,-3.8447,-3.8544,-3.8612,-3.8618,-3.8802,-3.8804,-3.881,-3.8818,-3.8861,-3.8895,-3.8907,0,0,-3.8226,-3.8229,-3.8284,-3.8281,-3.8403,-3.8406,-3.8531,-3.8617,-3.8647,-3.875,-3.8755,-3.8813,-3.882,-3.8863,-3.8986,-3.8995,0,0,0,-3.83,-3.8339,-3.8377,-3.844,-3.8508,-3.8566,-3.8635,-3.8667,-3.8756,-3.8695,-3.8842,-3.8847,-3.8873,-3.889,-3.8898,-3.8922,-3.8811,-3.8811,-3.8811,-3.8376,-3.841,-3.8502,-3.8555,-3.8617,-3.8687,-3.874,-3.8795,-3.8812,-3.8846,-3.8877,-3.8947,-3.8966,-3.8972,-3.8996,-3.8899,-3.8899,-3.8899,-3.8899,-3.8494,-3.8553,-3.8573,-3.8669,-3.8704,-3.8785,-3.8856,-3.8865,-3.8946,-3.8927,-3.8952,-3.8927,-3.8981,-3.9004,-3.89,-3.89,-3.89,-3.8899,-3.8899,-3.8546,-3.858,-3.8617,-3.8712,-3.8782,-3.8834,-3.8909,-3.894,-3.8969,-3.8994,-3.9028,-3.9028,-3.903,-3.9008,-3.9008,-3.9009,-3.9009,-3.9009,-3.9009,-3.8584,-3.8626,-3.8686,-3.8763,-3.8808,-3.887,-3.8942,-3.8986,-3.9043,-3.9059,-3.906,-3.9072,-3.8981,-3.8956,-3.9013,-3.9012,-3.9012,-3.9011,-3.9011,-3.8688,-3.8669,-3.8761,-3.8806,-3.8898,-3.8964,-3.9002,-3.909,-3.9131,-3.9167,-3.9175,-3.9103,-3.9108,-3.9102,-3.9082,-3.9168,-3.9168,-3.9168,-3.9169,-3.873,-3.8736,-3.8836,-3.8905,-3.8976,-3.9019,-3.9121,-3.9178,-3.9233,-3.9261,-3.9253,-3.9229,-3.9222,-3.9231,-3.9222,-3.9204,-3.9319,-3.932,-3.932,-3.8795,-3.8809,-3.889,-3.8943,-3.9018,-3.908,-3.9177,-3.9255,-3.9314,-3.9326,-3.9282,-3.9276,-3.9238,-3.9224,-3.9233,-3.9219,-3.9185,0,0]},{"header":{"parameterUnit":"m.s-1","parameterCategory":1,"la1":30.2992,"la2":30.254,"lo1":-89.0895,"lo2":-89.0443,"dy":0.0025,"dx":0.0025,"nx":19,"ny":19,"refTime":"2026-04-12T03:00:00:Z","depth":0,"parameterNumber":3,"parameterNumberName":"V-component_of_WINDS"},"data":[0,0,0,5.6679,5.6682,5.6772,5.6773,5.6897,5.6899,0,0,0,0,0,0,0,0,0,0,0,5.666,5.6662,5.6679,5.6682,5.6772,5.6773,5.6897,5.6899,0,0,0,0,0,0,0,0,0,0,0,5.666,5.6661,5.6663,5.6682,5.6772,5.6773,5.6897,5.6825,0,0,0,0,0,0,0,0,0,0,5.6735,5.6726,5.6661,5.6663,5.6683,5.6772,5.6773,5.6821,5.6829,5.6861,0,5.6894,0,5.6898,5.6908,5.6908,0,0,0,5.6675,5.6719,5.6737,5.6663,5.6684,5.6772,5.6729,5.6825,5.6835,5.6872,5.6895,5.69,5.6901,5.6909,5.6909,5.7121,5.7122,0,0,5.667,5.668,5.673,5.6743,5.6733,5.6727,5.6732,5.6831,5.6856,5.6896,5.6902,5.6903,5.691,5.6911,5.712,5.7121,0,0,0,5.666,5.6677,5.6692,5.6738,5.6754,5.6729,5.6736,5.6852,5.6856,5.6904,5.6904,5.691,5.6912,5.7118,5.712,5.7195,0,0,0,5.6657,5.6671,5.669,5.6697,5.6753,5.6805,5.6755,5.6849,5.686,5.6903,5.691,5.6913,5.7117,5.7119,5.719,5.7228,0,0,0,5.6652,5.6671,5.6687,5.6698,5.6737,5.6803,5.6812,5.6851,5.686,5.6908,5.6914,5.7116,5.7119,5.7185,5.7221,5.7287,0,0,0,5.6649,5.6751,5.6688,5.6802,5.6737,5.6849,5.6812,5.6894,5.6944,5.6911,5.7117,5.712,5.7184,5.7216,5.7282,5.7344,5.7371,0,0,5.6783,5.6767,5.6834,5.678,5.6907,5.6835,5.6971,5.7006,5.7,5.708,5.7085,5.7192,5.722,5.7286,5.7521,5.7543,0,0,0,5.688,5.6928,5.6959,5.7009,5.704,5.7068,5.7082,5.7095,5.7163,5.7044,5.7233,5.725,5.7288,5.7317,5.7336,5.7367,5.7134,5.7134,5.7134,5.7084,5.7073,5.7182,5.7182,5.723,5.7244,5.7281,5.73,5.7273,5.7318,5.7341,5.7486,5.7521,5.7534,5.7567,5.7374,5.7374,5.7374,5.7375,5.7279,5.7345,5.7309,5.7402,5.7388,5.7465,5.7482,5.746,5.7528,5.7467,5.75,5.7433,5.7559,5.7587,5.738,5.7379,5.7378,5.7378,5.7378,5.7411,5.7441,5.7457,5.7528,5.7583,5.7578,5.7646,5.7631,5.7617,5.765,5.7673,5.7672,5.7668,5.7662,5.7663,5.7663,5.7664,5.7664,5.7664,5.7542,5.7557,5.7617,5.766,5.769,5.7727,5.7742,5.777,5.7798,5.7781,5.7781,5.7749,5.7574,5.7529,5.7672,5.7671,5.767,5.7669,5.7669,5.7743,5.7695,5.7789,5.7819,5.7867,5.7923,5.7904,5.7963,5.7984,5.8018,5.7979,5.7852,5.7834,5.7819,5.7782,5.7982,5.7982,5.7982,5.7982,5.7854,5.7844,5.7936,5.7986,5.8032,5.8025,5.8128,5.8141,5.8146,5.8158,5.8127,5.8077,5.8063,5.8053,5.8033,5.7998,5.8248,5.8249,5.8249,5.7976,5.7971,5.8063,5.807,5.8106,5.8137,5.8234,5.8291,5.8286,5.8259,5.8166,5.8155,5.8075,5.8049,5.8019,5.7989,5.7925,0,0]}]]